Orbital Elements at Epoch 2459200.5 (2020-Dec-17.0) TDB
Reference: JPL 17 (heliocentric ecliptic J2000)
Element | Value | Uncertainty (1-sigma) | Units |
e | .2048822180468886 | 4.1625e-08 | |
a | 2.350040701148558 | 1.2593e-08 | au |
q | 1.868559149796776 | 9.7033e-08 | au |
i | 5.067135956759254 | 6.1287e-06 | deg |
node | 345.0789089259218 | 4.8083e-05 | deg |
peri | 287.5054477767048 | 5.1608e-05 | deg |
M | 287.0505669363292 | 2.3149e-05 | deg |
tp | 2459467.143452056082 (2021-Sep-09.64345206) | 8.5626e-05 | TDB |
period | 1315.865507226184 3.60 | 1.0577e-05 2.896e-08 | d yr |
n | .2735841908029585 | 2.1991e-09 | deg/d |
Q | 2.831522252500339 | 1.5173e-08 | au |
|
| | Orbit Determination Parameters
Additional Information
|